Weather History for Buckland, AK

Change the Weather History Date:

Wednesday, February 20, 2013

  Actual Average (PASK) Record (PASK)
Temperature  
Mean Temperature -20 °F -  
Max Temperature -7 °F 6 °F 33 °F (2008)
Min Temperature -32 °F -2 °F -34 °F (2014)
Degree Days  
Heating Degree Days 84    
Moisture  
Dew Point -22 °F    
Average Humidity 71    
Maximum Humidity 100    
Minimum Humidity 38    
Precipitation  
Precipitation 0.00 in - - ()
Sea Level Pressure  
Sea Level Pressure 29.67 in    
Wind  
Wind Speed 1 mph (SSE)    
Max Wind Speed 6 mph    
Max Gust Speed -    
Visibility 10 miles    
Events      
Averages and records for this station are not official NWS values.
T = Trace of Precipitation, MM = Missing Value Source: NWS Daily Summary

Daily Weather History Graph

Daily Weather History Graph

Search for Another Location

Airport:

Trip Planner

Search our weather history database for the weather conditions in past years. The results will help you decide how hot, cold, wet, or windy it might be!

Date:

Astronomy

Feb. 20, 2013 Rise Set
Actual Time 9:29 AM AKST 6:28 PM AKST
Civil Twilight 8:35 AM AKST 7:22 PM AKST
Nautical Twilight 7:36 AM AKST 8:22 PM AKST
Astronomical Twilight 6:36 AM AKST 9:21 PM AKST
Moon 12:29 PM AKST (2/20) 7:30 AM AKST (2/20)
Length of Visible Light 10h 47m
Length of Day
8h 59m
Waxing Gibbous, 77% of the Moon is Illuminated
Feb 20
Waxing Gibbous
Feb 25
Full
Mar 4
Last Quarter
Mar 11
New
Mar 19
First Quarter

Hourly Weather History & Observations

Time (AKST) Temp. Windchill Dew Point Humidity Pressure Visibility Wind Dir Wind Speed Gust Speed Precip Events Conditions
12:16 AM -29.2 °F - - N/A% 29.79 in 10.0 mi Calm Calm - N/A   Unknown
12:36 AM -29.2 °F -41.2 °F - N/A% 29.77 in 10.0 mi SE 3.5 mph - N/A   Unknown
12:56 AM -31.0 °F - -31.0 °F 100% 29.77 in 10.0 mi Calm Calm - N/A   Unknown
1:16 AM -25.6 °F - - N/A% 29.77 in 10.0 mi Calm Calm - N/A   Unknown
1:36 AM -29.2 °F - - N/A% 29.76 in 10.0 mi Calm Calm - N/A   Unknown
1:56 AM - - - N/A% 29.74 in 10.0 mi Calm Calm - N/A   Unknown
2:16 AM -29.2 °F - - N/A% 29.74 in 10.0 mi Calm Calm - N/A   Unknown
2:36 AM -27.4 °F - - N/A% 29.73 in 10.0 mi Calm Calm - N/A   Unknown
2:56 AM -29.2 °F - - N/A% 29.72 in 10.0 mi Calm Calm - N/A   Unknown
3:16 AM -29.2 °F -41.2 °F - N/A% 29.72 in 10.0 mi SSE 3.5 mph - N/A   Unknown
3:36 AM -27.4 °F - - N/A% 29.71 in 10.0 mi Calm Calm - N/A   Unknown
3:56 AM -27.4 °F - - N/A% 29.71 in 10.0 mi Calm Calm - N/A   Unknown
4:16 AM -27.4 °F - - N/A% 29.70 in 10.0 mi Calm Calm - N/A   Unknown
4:36 AM -29.2 °F - - N/A% 29.69 in 10.0 mi Calm Calm - N/A   Unknown
4:56 AM -27.4 °F - - N/A% 29.68 in 10.0 mi Calm Calm - N/A   Unknown
5:16 AM -29.2 °F - - N/A% 29.69 in 10.0 mi Calm Calm - N/A   Unknown
5:36 AM -29.2 °F - - N/A% 29.68 in 10.0 mi Calm Calm - N/A   Unknown
5:56 AM -27.4 °F - - N/A% 29.67 in 10.0 mi Calm Calm - N/A   Unknown
6:16 AM -32.8 °F -48.2 °F - N/A% 29.68 in 10.0 mi South 4.6 mph - N/A   Unknown
6:36 AM -29.2 °F - - N/A% 29.68 in 10.0 mi Calm Calm - N/A   Unknown
6:56 AM -27.4 °F - -27.4 °F 100% 29.67 in 10.0 mi Calm Calm - N/A   Unknown
7:16 AM -29.2 °F - - N/A% 29.68 in 10.0 mi Calm Calm - N/A   Unknown
7:36 AM -29.2 °F - - N/A% 29.68 in 10.0 mi Calm Calm - N/A   Unknown
7:56 AM -29.2 °F - - N/A% 29.68 in 10.0 mi Calm Calm - N/A   Unknown
8:16 AM -29.2 °F - - N/A% 29.68 in 10.0 mi Calm Calm - N/A   Unknown
8:36 AM -27.4 °F - - N/A% 29.68 in 10.0 mi Calm Calm - N/A   Unknown
8:56 AM -27.4 °F - - N/A% 29.67 in 10.0 mi Calm Calm - N/A   Unknown
9:16 AM -29.2 °F - - N/A% 29.67 in 10.0 mi Calm Calm - N/A   Unknown
9:36 AM -29.2 °F - - N/A% 29.66 in 10.0 mi Calm Calm - N/A   Unknown
9:56 AM -29.2 °F - - N/A% 29.66 in 10.0 mi Calm Calm - N/A   Unknown
10:16 AM -25.6 °F -39.8 °F - N/A% 29.66 in 10.0 mi SSE 4.6 mph - N/A   Unknown
10:36 AM -25.6 °F - - N/A% 29.66 in 10.0 mi Calm Calm - N/A   Unknown
10:56 AM -25.6 °F - - N/A% 29.66 in 10.0 mi Calm Calm - N/A   Unknown
11:16 AM -23.8 °F - - N/A% 29.66 in 10.0 mi Calm Calm - N/A   Unknown
11:36 AM -22.0 °F -35.6 °F - N/A% 29.64 in 10.0 mi SSE 4.6 mph - N/A   Unknown
11:56 AM -20.2 °F - - N/A% 29.64 in 10.0 mi Calm Calm - N/A   Unknown
12:16 PM -18.4 °F - -22.0 °F 84% 29.64 in 10.0 mi Calm Calm - N/A   Unknown
12:36 PM -16.6 °F -26.8 °F -27.4 °F 58% 29.64 in 10.0 mi South 3.5 mph - N/A   Unknown
12:56 PM -16.6 °F - -20.2 °F 84% 29.64 in 10.0 mi Calm Calm - N/A   Unknown
1:16 PM -16.6 °F - - N/A% 29.64 in 10.0 mi Calm Calm - N/A   Unknown
1:36 PM -13.0 °F - -16.6 °F 84% 29.64 in 10.0 mi Calm Calm - N/A   Unknown
1:56 PM -11.2 °F - -25.6 °F 49% 29.64 in 10.0 mi Calm Calm - N/A   Unknown
2:16 PM -11.2 °F - -14.8 °F 84% 29.64 in 10.0 mi Calm Calm - N/A   Unknown
2:36 PM -9.4 °F - -25.6 °F 45% 29.64 in 10.0 mi Calm Calm - N/A   Unknown
2:56 PM -9.4 °F - -11.2 °F 92% 29.63 in 10.0 mi Calm Calm - N/A   Unknown
3:16 PM -7.6 °F - -25.6 °F 41% 29.63 in 10.0 mi Calm Calm - N/A   Unknown
3:36 PM -7.6 °F - -7.6 °F 100% 29.63 in 10.0 mi Calm Calm - N/A   Unknown
3:56 PM -7.6 °F - -27.4 °F 38% 29.64 in 10.0 mi Calm Calm - N/A   Unknown
4:16 PM -9.4 °F -18.6 °F -20.2 °F 59% 29.63 in 10.0 mi South 3.5 mph - N/A   Unknown
4:36 PM -9.4 °F - -20.2 °F 59% 29.64 in 10.0 mi Calm Calm - N/A   Unknown
4:56 PM -7.6 °F - -23.8 °F 45% 29.64 in 10.0 mi Calm Calm - N/A   Unknown
5:16 PM -9.4 °F - -18.4 °F 65% 29.64 in 10.0 mi Calm Calm - N/A   Unknown
5:36 PM -11.2 °F -20.6 °F -27.4 °F 45% 29.64 in 10.0 mi NE 3.5 mph - N/A   Unknown
5:56 PM -14.8 °F - -27.4 °F 53% 29.64 in 10.0 mi Calm Calm - N/A   Unknown
6:16 PM -14.8 °F - -16.6 °F 92% 29.64 in 10.0 mi Calm Calm - N/A   Unknown
6:36 PM -14.8 °F -27.2 °F - N/A% 29.64 in 10.0 mi South 4.6 mph - N/A   Unknown
6:56 PM -16.6 °F - -23.8 °F 70% 29.64 in 10.0 mi Calm Calm - N/A   Unknown
7:16 PM -16.6 °F -26.8 °F -25.6 °F 64% 29.63 in 10.0 mi SSE 3.5 mph - N/A   Unknown
7:36 PM -16.6 °F - - N/A% 29.63 in 10.0 mi Calm Calm - N/A   Unknown
7:56 PM -22.0 °F -37.7 °F -25.6 °F 83% 29.64 in 10.0 mi South 5.8 mph - N/A   Unknown
8:16 PM -18.4 °F -33.4 °F - N/A% 29.63 in 10.0 mi South 5.8 mph - N/A   Unknown
8:36 PM -20.2 °F -33.5 °F -25.6 °F 76% 29.64 in 10.0 mi South 4.6 mph - N/A   Unknown
8:56 PM -23.8 °F -39.8 °F - N/A% 29.64 in 10.0 mi South 5.8 mph - N/A   Unknown
9:16 PM -23.8 °F -35.0 °F - N/A% 29.64 in 10.0 mi SSE 3.5 mph - N/A   Unknown
9:36 PM -18.4 °F -28.9 °F -18.4 °F 100% 29.64 in 10.0 mi SSE 3.5 mph - N/A   Unknown
9:56 PM -23.8 °F -37.7 °F - N/A% 29.64 in 10.0 mi SSE 4.6 mph - N/A   Unknown
10:16 PM -23.8 °F - - N/A% 29.64 in 10.0 mi Calm Calm - N/A   Unknown
10:36 PM -22.0 °F - - N/A% 29.64 in 10.0 mi Calm Calm - N/A   Unknown
10:56 PM -23.8 °F - - N/A% 29.64 in 10.0 mi Calm Calm - N/A   Unknown
11:16 PM -25.6 °F -37.1 °F - N/A% 29.64 in 10.0 mi South 3.5 mph - N/A   Unknown
11:36 PM -23.8 °F - - N/A% 29.64 in 10.0 mi Calm Calm - N/A   Unknown
11:56 PM -22.0 °F - -25.6 °F 83% 29.64 in 10.0 mi Calm Calm - N/A   Unknown